Wind_Speed
51 53 53 48 43 43 46 49 50 50 51 52 53 53 54 55 54 50 49 49 50 53 51 49 50 50 51 49 46 44 40 36 33 35 37 35 30 26 25 25 24 26 24 23 26 29 31 33 33 33 33 33 34 35 37 38 39 40 39 37 36 36 35 35 35 35 34 34 34 34 34 35 36 37 38 37 37 37 37 37 37 37 37 38 39 40
51 53 50 44 43 46 48 48 49 50 51 52 53 54 55 55 55 52 52 51 52 54 53 52 51 50 48 47 46 45 41 36 32 34 36 34 28 23 24 24 23 25 25 26 29 31 33 34 34 34 34 34 33 34 34 35 36 37 37 36 36 36 36 36 36 36 35 34 35 36 36 37 38 39 39 38 38 39 39 40 40 41 41 42 43 43
52 53 47 43 45 47 48 48 50 50 51 52 52 55 56 55 56 56 55 53 53 55 54 53 52 50 47 46 46 44 40 36 34 33 33 32 28 23 24 26 25 25 25 28 31 32 33 33 33 33 34 34 33 34 34 34 34 34 34 35 36 37 37 38 38 37 37 37 38 38 39 39 40 41 41 41 41 41 41 42 43 44 44 45 45 45
54 53 47 46 47 48 49 50 51 51 52 52 53 55 56 55 56 58 56 54 55 55 54 53 52 52 50 48 48 45 39 35 34 33 31 31 30 27 25 25 25 25 26 27 29 29 30 30 30 29 30 31 31 32 33 33 33 33 33 34 35 37 38 38 39 39 39 39 39 39 40 41 42 43 43 44 44 43 43 44 45 46 46 46 46 45
53 52 49 48 49 50 52 52 52 53 53 54 54 56 56 55 55 57 56 56 55 54 54 53 53 54 53 50 49 46 40 36 34 34 32 30 31 29 26 24 24 25 25 26 26 27 27 28 29 28 27 28 29 31 32 33 33 33 33 33 34 36 37 37 38 39 40 40 40 40 41 42 43 44 45 46 45 45 46 47 47 48 47 46 45 45
52 51 50 50 50 51 52 53 53 55 56 56 56 55 54 54 54 55 55 56 56 55 53 52 53 54 54 52 49 47 44 39 38 39 34 30 30 28 26 25 24 22 23 25 25 26 27 27 28 28 27 27 28 30 31 33 34 34 34 34 34 35 36 36 37 38 39 40 41 42 42 42 43 44 45 46 47 48 48 48 49 48 47 46 45 45
52 50 49 50 50 51 52 52 52 54 56 56 54 52 52 53 53 53 54 54 55 55 54 53 54 55 55 54 50 49 49 45 44 45 37 29 30 30 27 26 26 26 26 28 28 27 28 29 29 30 29 29 31 33 34 35 36 36 37 36 36 35 35 36 37 38 39 40 41 42 43 43 43 42 42 44 46 48 48 48 48 48 48 47 46 46
53 50 49 49 49 50 50 47 47 50 52 52 51 49 50 50 50 50 51 52 53 54 55 55 56 56 55 55 53 51 51 49 49 50 43 33 31 32 30 29 31 34 34 35 35 33 32 33 33 34 33 33 34 37 39 40 40 40 40 40 39 38 37 37 37 38 39 41 42 43 44 44 42 41 41 42 44 45 46 47 47 48 48 48 47 46
50 50 49 49 49 48 45 44 45 46 47 47 47 46 46 46 47 48 49 51 52 53 56 56 55 55 54 54 56 55 54 52 50 49 46 38 34 33 34 35 38 39 41 42 43 42 40 38 36 36 37 37 39 43 45 46 45 45 44 44 42 41 41 40 40 41 41 42 43 43 44 44 43 43 43 43 43 44 45 45 46 48 48 48 47 47
46 46 47 48 47 44 43 44 44 44 44 44 44 44 44 45 46 48 49 50 51 53 56 55 52 52 53 52 54 56 55 55 53 49 44 39 38 38 39 41 43 43 44 45 46 48 49 48 46 44 43 45 47 50 51 51 51 50 49 48 46 45 44 43 44 44 44 44 44 44 43 43 44 44 45 45 45 45 45 45 47 48 48 49 48 48
45 45 46 45 44 42 42 42 42 42 43 43 43 43 44 46 47 49 50 50 52 53 52 52 50 50 52 53 54 55 55 55 54 52 48 42 39 41 43 45 48 48 48 50 51 52 54 56 58 57 56 55 56 57 57 56 54 53 52 52 51 50 48 47 46 45 45 45 44 44 43 44 45 45 46 47 47 47 48 48 48 49 50 50 50 49
48 48 47 46 44 44 44 43 43 43 43 42 43 44 45 47 48 50 51 51 52 52 50 50 50 50 52 54 55 55 56 55 53 52 53 49 44 44 46 50 54 55 56 57 58 59 60 61 62 64 64 63 61 60 60 59 56 54 53 54 54 54 53 52 50 49 47 46 45 44 45 45 46 46 47 48 49 50 50 50 50 50 50 50 51 50
51 50 50 50 48 47 48 48 48 47 46 46 45 45 46 47 49 51 52 52 52 51 51 52 54 54 53 53 53 53 54 54 54 53 55 54 51 50 52 55 59 62 63 64 64 65 66 66 67 67 67 67 65 62 59 57 54 52 51 51 53 54 54 55 55 54 53 51 49 48 47 47 47 47 48 49 50 51 51 52 52 51 51 51 51 51
53 52 52 52 51 50 51 51 51 50 50 50 49 48 49 50 53 54 54 54 54 54 54 55 57 58 55 52 52 52 52 53 55 57 58 59 59 60 63 65 67 69 71 71 71 72 71 71 71 69 67 65 63 61 59 55 52 50 48 48 49 51 52 53 55 57 58 57 56 55 53 51 50 49 49 49 50 50 51 52 52 52 51 51 51 51
56 56 54 54 54 53 53 53 52 53 53 53 52 52 54 54 54 55 55 55 57 58 59 60 62 61 57 53 54 54 54 56 59 62 64 65 68 70 72 72 73 74 75 75 75 74 74 73 72 69 65 60 56 54 52 51 50 50 51 51 51 51 52 53 54 56 59 60 61 61 60 58 56 55 54 53 52 51 52 52 53 53 53 52 51 51
58 59 57 57 58 57 57 57 56 57 57 57 57 58 59 57 55 57 58 59 60 62 64 66 67 66 61 58 58 58 60 62 65 67 68 70 72 73 74 74 74 76 76 76 74 73 73 72 70 68 64 58 55 52 50 49 49 51 56 57 55 53 52 53 54 56 58 61 63 65 65 64 62 60 59 58 57 56 56 55 55 55 55 54 53 53
59 61 58 59 62 61 61 62 62 62 63 64 64 64 62 60 60 61 62 62 62 64 67 68 70 70 68 67 64 62 63 65 68 69 69 72 73 73 75 76 77 77 76 74 71 70 69 69 67 65 63 59 57 57 56 55 55 57 60 61 57 53 51 50 51 53 56 59 63 66 68 67 65 64 63 61 60 60 60 60 59 59 58 58 56 55
62 63 61 62 65 65 65 66 66 67 68 67 65 63 61 62 64 62 62 63 64 66 69 69 70 70 71 72 71 67 64 65 68 69 71 74 75 76 78 80 80 77 75 72 70 68 67 67 65 63 62 61 59 60 61 61 61 62 63 61 57 53 51 50 50 50 53 55 59 63 66 68 66 64 64 64 63 62 62 62 62 62 62 61 60 60
66 67 67 66 67 68 66 66 68 69 67 65 62 61 60 62 63 62 63 64 65 67 70 70 69 68 68 70 69 65 61 62 64 65 68 72 75 77 78 78 76 74 72 70 69 69 68 66 65 64 63 63 63 64 65 66 66 65 64 62 57 53 50 50 50 51 52 54 57 59 62 67 67 65 64 66 66 65 63 63 63 64 64 64 63 63
68 68 69 69 70 70 69 69 69 65 62 61 61 62 63 63 63 63 64 64 64 66 68 67 67 67 67 66 64 63 62 61 61 62 64 67 70 72 72 71 68 66 67 67 68 69 67 65 65 66 66 67 67 69 69 69 68 66 64 62 59 55 51 50 50 51 52 56 59 60 61 65 67 66 65 66 67 66 65 64 64 64 65 65 65 65
68 68 69 69 70 71 71 69 66 62 61 63 63 64 64 63 63 64 64 64 64 65 65 65 67 67 66 64 64 65 64 61 60 61 63 64 64 65 65 65 64 64 65 67 67 68 67 67 68 69 70 71 70 70 71 70 68 66 65 63 61 59 56 53 52 52 54 57 61 62 62 64 66 66 65 65 66 66 65 65 65 65 65 66 67 67
66 67 69 68 68 69 68 65 64 65 65 66 66 65 64 63 62 63 65 64 62 63 63 62 64 64 61 60 62 63 62 60 60 62 64 64 64 64 65 67 69 70 71 71 71 71 71 71 71 70 69 69 69 69 69 70 69 67 65 64 62 61 60 58 56 55 56 59 62 64 64 64 64 63 62 62 63 65 67 67 67 67 67 67 67 67
65 66 69 70 69 68 65 63 64 66 66 67 67 65 63 62 61 61 63 63 61 63 63 63 67 69 66 62 62 63 65 66 67 67 68 69 69 69 70 73 76 78 79 78 77 76 74 72 70 67 65 64 65 66 66 67 67 66 65 65 64 64 64 63 62 61 60 61 64 66 66 67 66 62 58 59 62 66 69 69 68 69 69 68 68 68
64 65 66 68 68 67 66 65 65 67 66 65 64 61 60 62 61 62 64 64 64 66 67 68 73 72 68 64 62 62 64 66 67 68 68 69 70 72 74 76 79 82 83 83 82 81 78 75 72 70 67 65 65 65 65 65 64 63 63 64 65 65 66 67 66 66 65 65 67 68 68 69 67 63 59 59 62 67 69 69 67 68 69 70 70 70
59 61 62 63 66 68 69 68 68 68 67 66 65 63 64 65 65 66 66 65 67 69 67 69 72 71 67 66 64 63 63 64 65 67 69 71 73 75 76 77 78 80 83 85 86 85 85 83 82 81 79 77 74 71 69 68 66 65 64 64 66 67 68 69 69 69 70 70 71 72 71 70 69 66 62 61 63 67 69 69 69 68 68 70 71 72
60 63 63 64 67 70 71 71 70 69 68 68 67 65 65 65 65 65 65 66 69 71 69 70 72 71 68 68 67 66 66 66 66 66 67 68 70 71 72 73 74 75 77 80 82 84 86 86 85 85 85 84 83 80 77 74 72 71 70 68 68 69 70 71 73 73 73 74 75 76 77 77 76 75 71 67 67 70 73 73 72 72 71 71 73 74
66 68 68 68 70 70 70 70 69 68 68 68 67 67 66 66 66 65 66 69 72 73 74 73 74 75 73 71 72 72 72 71 71 71 70 70 69 70 70 71 73 74 75 77 79 82 84 85 85 85 85 85 86 86 84 83 81 79 79 77 76 75 74 74 75 75 76 77 78 79 80 81 81 81 80 75 71 73 77 78 77 76 74 73 74 75
69 71 70 70 71 70 69 70 69 69 70 70 70 70 69 68 69 70 73 75 74 76 78 77 75 78 78 75 76 77 76 77 77 76 76 76 76 76 77 77 78 79 79 78 78 78 79 80 82 82 83 83 83 84 85 86 85 85 84 84 83 82 81 80 80 80 80 81 82 82 83 83 83 83 83 82 78 75 78 79 80 80 78 76 75 76
70 73 71 70 71 71 70 71 71 71 72 72 72 72 72 71 72 74 76 75 74 77 79 77 75 77 77 76 77 78 77 77 77 76 76 76 76 76 78 79 80 81 81 81 81 81 82 82 83 84 85 85 85 85 85 86 87 88 88 87 87 86 85 84 83 83 84 85 86 87 87 87 88 87 87 87 86 83 82 81 81 81 82 80 78 77
71 73 72 72 73 73 71 71 71 71 72 73 74 75 75 75 75 75 76 75 75 77 77 75 74 74 74 74 75 75 75 75 74 74 74 74 74 75 77 79 80 81 81 82 82 83 84 85 86 87 89 90 90 89 89 89 89 89 90 90 90 90 89 88 88 87 86 86 86 87 88 89 90 91 90 90 89 86 84 82 81 81 83 84 82 81
71 73 73 73 75 75 73 72 72 73 74 76 77 76 75 76 76 75 75 73 72 73 73 72 72 72 71 72 72 73 74 75 75 76 76 78 79 80 80 79 79 79 79 80 80 81 82 83 84 85 86 88 89 89 89 89 89 89 89 90 91 92 92 92 92 91 90 89 88 87 87 87 88 89 90 90 88 86 82 80 78 79 82 84 85 86
70 73 73 73 76 77 74 73 74 74 75 78 78 76 74 73 72 70 68 64 63 64 66 67 69 71 72 74 76 77 78 78 79 80 80 81 82 81 81 80 79 79 78 78 79 80 80 81 82 84 85 86 87 88 90 91 91 91 90 90 91 92 92 93 93 93 92 91 90 89 88 89 89 89 89 89 89 88 86 83 80 80 81 83 85 87
70 72 73 74 77 79 75 75 76 76 78 80 77 74 72 70 68 68 66 64 65 69 70 71 73 75 77 79 81 82 82 82 82 82 82 82 82 82 82 82 83 83 83 83 83 83 84 84 84 85 86 86 88 90 93 95 96 95 94 94 94 93 93 93 94 94 94 95 95 94 93 92 91 89 88 87 87 88 88 88 87 85 84 85 86 87
71 73 74 75 79 80 77 76 77 79 82 82 76 72 72 72 71 71 71 71 73 76 79 80 81 82 83 84 85 85 85 86 85 85 85 86 86 86 86 86 86 87 87 88 89 90 91 91 91 91 91 92 93 96 98 99 98 98 98 98 98 98 98 98 98 98 98 98 99 100 99 97 93 89 87 85 84 84 86 88 89 89 88 87 87 88
74 75 76 77 80 81 79 78 80 83 85 82 77 75 76 76 75 75 75 75 76 78 81 83 84 84 85 86 87 87 88 88 88 87 88 88 89 88 88 88 88 89 89 90 90 91 92 93 93 94 94 95 96 97 97 97 97 97 97 98 99 99 100 100 100 101 102 102 103 103 103 102 98 94 90 86 84 83 84 86 89 91 91 90 89 89
76 76 77 78 79 81 80 80 82 85 85 82 80 79 79 78 78 78 79 79 80 81 83 84 85 86 86 86 88 88 89 89 89 88 89 89 90 89 89 89 89 89 89 89 89 89 90 91 91 90 91 91 92 92 92 92 93 93 92 93 95 96 97 97 98 98 98 98 98 99 99 100 101 99 95 91 86 83 84 87 89 91 92 91 91 92
75 75 76 76 77 78 79 80 82 83 84 82 80 79 79 78 78 80 80 81 82 83 83 84 85 85 86 86 87 87 88 89 88 87 87 88 88 87 87 86 86 85 85 84 84 83 83 84 84 84 83 83 83 85 87 88 89 88 86 85 86 87 89 91 92 92 91 89 89 89 89 90 93 96 97 95 91 87 85 86 89 89 90 89 90 90
75 75 75 75 76 77 77 78 80 81 82 82 80 78 78 77 77 80 81 81 81 82 83 83 83 83 84 84 84 85 86 86 85 83 83 85 84 83 83 82 82 81 81 81 82 82 81 82 83 82 81 80 81 84 88 90 90 90 88 85 83 83 84 86 88 88 87 86 85 84 85 86 87 89 92 94 95 92 90 89 89 89 88 88 87 87
72 73 73 74 76 76 76 78 80 81 81 80 78 77 76 76 76 78 79 80 79 78 79 79 79 79 80 80 81 83 83 84 83 81 80 81 82 81 80 80 80 81 81 82 83 84 84 84 84 85 85 85 86 88 90 91 91 92 91 90 89 88 88 90 92 92 92 91 91 91 91 90 90 90 90 92 94 94 93 92 92 91 91 90 88 87
69 69 70 71 73 73 74 76 78 78 78 76 74 73 72 73 73 73 74 76 75 74 74 76 76 76 77 78 80 81 81 82 81 79 78 79 80 80 80 80 80 81 82 83 84 85 85 85 85 85 86 86 87 88 90 91 91 92 92 92 92 93 94 96 98 99 100 100 100 100 98 94 91 90 91 92 93 93 92 91 91 92 93 92 92 90
66 66 67 69 69 70 70 72 74 74 74 72 69 68 68 68 69 70 70 71 70 69 70 72 73 73 75 76 78 78 78 79 79 78 77 77 78 79 80 81 82 82 83 83 83 84 85 85 85 85 85 86 87 88 89 90 90 90 91 92 92 93 95 97 98 100 102 102 102 102 100 96 93 91 91 92 93 92 90 87 84 85 87 89 89 86
62 63 64 65 65 66 66 68 70 71 70 66 63 63 63 64 64 65 66 65 65 66 67 69 70 72 74 76 77 77 77 77 77 76 77 77 79 80 81 82 82 82 82 82 83 84 86 86 86 86 86 86 87 88 89 90 90 90 90 91 91 92 94 95 96 97 98 99 100 100 99 99 98 95 94 93 94 94 92 87 82 79 78 80 80 77
58 59 60 60 60 61 63 64 67 67 64 60 58 58 59 61 61 62 63 64 64 65 67 69 70 72 74 75 76 76 76 76 75 76 77 79 80 81 81 81 82 82 82 82 83 84 86 87 87 86 86 86 87 88 89 90 91 91 91 91 91 92 93 93 94 95 95 95 96 97 97 98 99 100 99 98 98 98 96 92 87 82 79 77 76 75
55 55 56 56 57 58 61 62 63 62 59 57 56 57 57 58 60 61 62 64 64 65 66 68 69 70 72 73 74 75 75 76 76 77 78 79 80 80 81 81 82 82 83 83 84 84 85 87 87 86 86 85 86 87 88 90 91 91 91 91 92 93 93 93 94 94 94 94 94 95 96 97 98 100 101 102 103 102 101 98 95 91 87 84 82 81
53 52 53 56 57 58 60 60 59 58 56 54 55 55 56 57 57 58 61 63 63 64 66 67 68 69 70 72 74 75 76 76 76 77 78 79 79 80 81 82 82 83 83 83 83 83 83 84 85 85 85 84 83 83 85 86 88 89 89 89 91 92 93 93 94 94 94 94 94 94 95 96 97 98 99 102 104 105 105 104 103 100 97 94 92 90
50 50 53 56 56 57 58 55 53 54 53 52 53 54 55 56 56 58 60 62 64 65 66 67 69 69 70 72 73 74 75 75 76 77 78 79 79 80 81 81 81 81 81 81 80 80 80 81 81 81 82 81 80 80 81 82 84 85 86 87 89 91 92 93 93 93 94 94 94 95 95 96 96 97 97 99 101 103 105 106 106 106 105 103 100 97
48 49 53 55 55 56 55 50 48 51 52 52 54 55 55 56 57 59 61 63 64 65 65 66 68 68 69 71 72 74 74 75 75 76 77 77 78 78 79 79 78 78 77 77 77 78 78 79 79 79 80 80 79 79 80 81 82 83 84 86 87 89 91 91 92 92 92 93 93 94 94 95 96 96 97 97 98 99 101 102 104 106 107 107 106 103
47 49 52 53 53 55 54 49 48 51 53 53 54 55 56 57 58 59 61 62 62 63 64 65 66 67 69 70 71 72 73 73 73 74 75 75 75 75 74 74 74 74 74 74 75 77 78 79 80 80 80 80 79 79 80 80 81 81 83 85 86 88 89 89 90 91 91 91 91 91 92 93 94 95 95 96 97 97 97 98 100 102 103 105 106 107
47 50 51 51 52 53 52 50 49 52 53 53 54 55 57 58 59 59 60 60 61 62 63 64 65 67 67 68 69 70 70 70 70 71 71 70 70 70 71 72 72 73 74 74 76 77 78 80 81 81 81 80 79 79 80 80 79 80 82 84 85 87 87 86 86 87 87 87 88 88 88 89 90 91 92 93 94 95 95 95 96 98 99 100 101 105
46 48 48 50 52 52 50 49 50 53 55 54 53 55 57 58 59 59 59 60 61 63 63 64 64 65 65 66 66 66 66 66 66 67 67 67 68 69 71 72 73 73 74 75 76 77 78 79 79 80 80 80 79 79 79 79 78 79 81 83 84 85 85 84 83 83 82 82 83 83 84 85 86 86 88 89 90 91 92 93 93 94 96 96 96 98
45 47 47 49 51 51 50 50 51 54 56 54 53 55 57 58 58 59 59 60 61 62 63 63 63 62 62 61 60 60 61 62 63 65 67 67 68 69 69 70 71 71 72 73 74 75 75 76 77 78 78 78 78 78 78 77 77 77 77 78 79 79 79 78 78 78 77 76 77 78 79 80 80 81 82 83 84 86 87 88 89 90 91 92 93 94
Wind_Direction
281 282 282 286 290 287 282 280 283 285 285 285 286 287 288 288 289 292 292 289 288 287 285 285 285 285 287 289 290 290 288 288 292 292 290 289 290 292 289 284 281 279 279 276 272 272 274 277 280 281 281 281 280 279 278 278 278 278 277 276 275 274 274 272 272 272 274 275 275 274 273 273 271 270 270 271 271 270 270 269 269 270 271 272 272 273
281 280 283 287 285 281 280 281 283 283 284 285 286 287 288 289 291 292 290 289 290 289 289 290 287 285 286 288 289 288 289 292 293 289 288 289 291 292 288 282 276 275 275 273 270 270 274 277 279 280 281 281 281 281 280 279 279 280 280 278 275 272 270 269 268 270 272 273 272 271 271 270 270 271 272 272 271 271 271 271 272 272 271 271 270 271
279 279 283 284 281 281 282 282 282 282 283 284 286 287 288 289 290 290 290 291 290 289 290 291 288 288 288 288 287 286 290 295 294 289 288 288 290 291 285 282 279 276 274 273 272 273 276 277 277 277 278 279 281 281 282 281 280 280 279 277 274 271 269 268 268 268 269 269 269 269 269 269 270 270 271 271 270 271 272 272 271 270 269 269 269 270
278 279 282 282 281 283 283 282 282 282 283 284 285 286 287 289 290 290 290 291 290 290 291 291 289 289 288 286 285 286 290 294 292 289 287 288 291 288 281 278 277 274 273 273 275 276 277 278 278 277 277 279 281 282 284 284 282 280 278 277 274 272 270 269 269 267 266 266 266 267 267 268 269 270 270 271 271 271 270 269 268 268 268 268 269 271
276 278 280 280 281 281 281 281 281 282 282 283 284 285 286 288 288 289 290 290 289 289 290 291 290 289 288 286 286 289 293 293 290 286 284 288 288 283 280 276 271 269 270 273 277 279 279 280 281 280 279 280 282 285 286 286 284 281 278 275 274 273 271 269 268 267 267 266 265 265 265 266 267 269 269 271 271 271 269 268 267 267 268 269 270 272
274 275 276 277 277 278 277 278 279 280 280 280 281 283 285 285 285 286 287 288 288 288 288 289 288 286 286 287 289 293 294 292 289 284 284 289 285 278 279 281 277 267 262 266 274 278 279 279 281 282 284 286 287 289 290 290 289 285 281 278 275 273 271 270 269 268 268 267 266 265 265 265 266 266 267 269 269 268 267 267 267 268 269 270 270 272
276 275 275 275 275 275 274 274 276 277 277 277 279 280 281 281 282 284 284 285 286 287 287 287 285 284 285 287 291 294 294 293 290 285 285 289 283 276 276 282 287 280 267 262 264 270 275 276 277 279 282 287 291 292 293 293 292 289 287 283 280 277 274 272 270 268 268 267 266 266 266 266 266 265 265 266 266 266 267 267 267 268 269 269 270 270
279 278 276 275 273 273 273 274 275 274 275 277 279 279 279 280 282 282 283 283 283 284 285 284 285 286 286 288 291 291 290 291 291 292 295 294 284 278 278 281 287 287 282 275 268 266 272 275 275 275 277 282 288 292 293 292 291 289 287 285 283 281 278 275 273 271 269 268 267 266 267 267 267 265 264 263 264 265 266 267 267 267 267 268 268 268
280 278 277 275 273 273 274 274 273 273 275 278 279 280 282 283 283 283 282 281 282 282 282 282 285 288 285 286 289 289 288 288 288 292 297 298 292 288 286 284 284 286 288 287 283 278 278 277 274 271 271 276 282 287 290 290 289 287 284 282 281 280 278 277 275 273 271 269 267 266 266 266 265 264 262 261 262 263 265 267 267 267 266 266 266 266
280 279 278 276 276 276 276 274 274 275 276 277 279 280 282 283 283 282 281 281 282 280 280 282 288 290 284 281 283 284 286 288 289 289 291 293 295 295 295 290 286 285 286 288 288 288 287 286 283 278 275 277 280 283 286 287 287 285 282 279 277 276 275 275 274 274 272 271 269 267 265 264 263 262 262 262 261 261 263 264 265 266 265 265 264 264
279 279 279 278 278 278 277 277 277 277 277 277 279 279 280 280 280 280 280 281 281 278 280 284 288 288 282 279 280 281 284 287 288 290 290 289 290 294 297 295 292 289 286 285 285 286 287 288 288 287 285 284 285 285 286 285 285 283 280 278 275 274 274 273 272 271 270 270 269 267 265 263 261 261 261 261 261 261 260 260 261 261 262 262 263 263
277 277 277 278 278 278 278 278 277 277 278 279 279 278 278 277 277 278 278 278 279 279 281 284 284 281 276 276 280 284 286 288 289 290 290 289 290 292 294 295 294 292 289 287 285 285 285 286 287 288 288 288 288 287 287 286 284 282 280 278 276 274 274 273 272 269 268 267 266 264 264 262 260 260 259 259 259 259 260 259 259 258 259 259 260 260
276 276 277 277 278 279 280 280 279 280 282 282 281 281 280 279 278 276 276 276 277 279 280 280 279 275 271 273 278 282 286 289 290 289 289 290 291 291 291 291 291 291 290 288 286 285 285 286 287 287 287 288 288 288 287 285 282 279 278 276 274 273 273 273 272 271 269 266 264 262 261 260 259 258 257 257 257 257 258 258 258 257 257 256 256 257
275 274 276 278 278 278 280 282 283 283 284 283 283 284 282 282 281 280 281 281 279 277 276 275 275 272 270 272 277 280 283 285 286 286 287 289 290 290 290 290 289 288 288 287 287 286 286 286 286 286 286 286 286 286 286 285 282 278 276 274 271 271 270 270 270 270 269 269 267 265 262 259 258 256 255 254 254 254 255 255 256 256 256 255 255 254
277 275 274 277 277 277 279 282 282 282 282 282 283 283 282 283 284 285 285 283 280 279 277 275 274 272 271 273 277 279 280 280 282 283 284 286 288 289 289 289 288 287 287 286 286 286 286 286 285 285 285 286 286 284 283 283 280 276 276 277 273 271 269 267 266 265 265 266 267 267 266 263 260 257 255 253 251 251 251 252 253 254 254 254 254 253
278 276 275 278 278 278 279 280 281 282 282 282 282 282 283 284 285 284 282 280 279 278 277 277 277 276 275 275 276 278 280 281 282 283 284 285 286 286 286 286 286 285 285 284 283 283 282 282 282 283 284 285 287 286 283 281 277 273 276 279 278 275 272 270 268 266 264 264 264 265 265 265 263 261 258 256 254 253 252 251 251 251 252 252 253 253
279 277 276 277 279 279 279 280 280 281 281 282 281 282 284 285 283 281 279 278 277 275 275 278 279 281 282 279 277 279 280 282 283 284 284 283 282 282 282 282 282 283 282 281 280 279 278 278 277 278 280 282 284 285 285 283 280 277 278 280 281 279 276 273 271 268 264 263 262 262 262 263 263 262 261 259 257 257 256 255 254 252 251 251 252 252
282 280 277 277 280 281 280 281 282 282 282 283 283 285 285 283 281 280 278 277 276 275 275 277 277 279 280 280 280 281 280 279 280 280 279 278 278 278 278 279 279 279 279 279 278 277 276 276 276 276 277 279 279 280 282 282 282 281 281 281 281 279 276 275 272 266 262 260 260 260 260 260 262 262 263 262 261 260 259 258 257 255 255 254 253 253
283 283 279 277 279 281 281 281 282 283 285 286 287 286 284 282 281 279 278 277 277 277 278 279 279 279 278 280 282 282 280 276 274 273 272 273 274 275 275 275 275 274 274 274 275 275 275 276 277 277 278 279 280 280 281 281 281 280 279 280 280 277 274 271 269 266 263 258 256 258 258 258 258 260 261 263 264 264 263 261 259 258 257 256 255 254
283 283 282 280 280 281 282 282 283 286 287 287 286 284 283 282 281 280 278 279 280 280 280 281 281 280 281 283 283 282 280 274 270 269 270 270 270 270 270 269 268 268 268 269 271 272 274 275 276 278 280 281 282 282 282 282 280 278 277 277 276 274 271 267 263 261 259 256 253 253 255 256 255 255 257 260 262 263 264 264 264 262 261 259 258 257
283 284 284 283 281 281 283 285 286 287 286 284 283 282 283 282 281 280 279 280 281 280 280 281 280 282 284 285 284 282 278 272 269 270 270 269 268 267 266 266 266 266 267 268 271 273 275 276 277 279 279 280 281 281 280 279 277 276 275 274 273 271 269 265 261 258 255 252 251 251 252 253 252 251 253 256 258 261 263 264 266 266 266 266 265 264
285 284 285 285 284 284 285 286 286 285 283 283 282 282 282 282 282 281 281 282 282 281 281 281 280 282 284 284 284 281 276 272 270 269 268 267 265 265 266 267 268 269 269 271 273 274 276 277 277 277 276 276 276 276 275 274 273 272 271 271 270 268 267 265 262 259 255 251 249 250 250 251 251 250 251 254 258 261 263 264 265 267 268 268 269 269
284 284 284 285 286 286 285 284 283 283 283 283 282 283 284 284 283 281 280 281 280 278 277 277 276 277 280 281 279 274 272 272 272 270 268 267 266 265 265 267 269 271 273 274 274 275 275 275 274 274 273 272 271 271 270 269 269 268 268 268 267 266 264 263 262 260 258 254 251 250 250 251 251 250 251 255 259 261 262 262 264 266 267 268 269 269
283 283 283 284 284 283 283 282 282 282 282 282 281 281 280 278 278 276 276 276 274 272 273 273 273 275 277 276 273 270 270 271 270 270 270 269 269 268 267 267 269 271 272 274 275 275 275 274 273 271 271 270 270 269 268 267 268 267 266 265 265 263 261 261 261 260 258 256 254 252 250 249 248 248 250 253 256 259 259 260 262 264 266 267 268 268
280 279 280 281 281 281 281 282 282 282 281 279 278 277 276 276 275 274 274 274 271 271 273 272 272 273 274 274 273 271 271 270 270 270 270 270 270 270 270 269 269 269 269 271 273 274 275 275 274 273 273 272 270 268 266 265 265 264 264 262 261 260 257 256 256 256 256 255 254 254 252 249 247 247 249 251 254 256 257 257 259 261 263 264 265 266
276 276 277 277 278 279 280 280 280 280 278 276 275 275 275 274 274 274 274 272 270 271 271 270 271 273 273 272 272 271 270 271 271 271 271 271 270 269 269 269 269 268 268 268 270 271 273 273 273 273 273 272 271 269 266 265 264 264 263 261 259 258 256 254 252 251 250 250 249 250 251 251 250 249 250 252 253 255 256 255 255 256 259 261 262 263
276 275 275 275 276 277 278 279 278 277 276 274 274 273 273 272 272 271 271 270 271 272 271 269 272 273 272 272 272 272 271 270 269 269 269 268 268 268 268 268 268 268 268 268 268 269 270 270 270 270 269 269 269 268 267 266 265 265 265 265 263 260 259 257 255 253 251 249 248 247 246 247 249 250 252 253 254 254 255 256 256 255 255 257 258 259
275 275 275 276 276 276 276 277 277 276 275 275 274 274 273 272 271 270 270 271 273 273 272 273 274 275 275 275 275 274 273 271 270 269 269 268 268 268 268 268 268 268 268 268 267 267 267 268 268 269 268 268 268 268 268 267 267 266 266 266 266 264 263 261 260 259 258 257 256 254 251 249 250 251 254 256 258 257 256 257 258 257 256 255 256 256
274 275 275 275 275 275 275 275 276 275 275 275 274 274 273 272 272 272 273 274 275 274 275 277 277 276 277 277 275 275 274 274 273 272 271 271 270 270 271 271 270 270 269 269 268 268 268 267 267 268 268 268 268 268 268 268 269 269 268 267 266 265 264 264 263 263 263 262 262 262 260 259 257 257 258 259 261 261 260 259 259 258 257 257 256 256
275 275 275 275 275 275 274 274 274 274 273 273 273 273 273 274 274 274 275 276 276 276 277 278 277 276 276 275 274 274 274 273 273 272 271 271 272 273 274 273 273 272 271 270 270 269 269 269 269 269 269 269 269 269 268 268 269 269 269 269 268 267 265 265 264 264 264 264 264 264 264 264 264 264 264 264 264 264 263 262 260 259 258 258 258 257
275 275 276 276 275 275 274 274 274 273 273 272 271 272 274 275 276 277 277 278 277 276 276 276 275 275 276 275 276 276 276 275 275 274 274 275 276 277 277 276 275 274 272 271 271 270 269 269 269 269 269 269 269 270 270 270 269 269 269 269 269 269 268 267 266 265 265 265 265 266 266 265 265 265 266 266 266 266 264 262 260 259 258 258 258 258
275 275 276 275 274 274 275 275 274 273 273 272 272 274 277 278 279 279 279 277 275 273 273 272 271 273 275 277 279 279 279 279 278 277 277 276 277 277 275 274 273 272 272 271 270 270 270 269 269 268 268 268 269 269 270 271 271 271 271 270 269 269 269 269 268 267 266 266 265 266 268 270 269 267 266 266 266 266 264 262 259 257 257 258 259 259
274 274 274 274 273 273 274 274 273 272 271 270 273 277 278 277 276 275 273 271 270 271 272 271 272 274 276 278 280 281 281 280 280 279 279 278 277 276 275 273 271 270 270 269 269 269 269 268 268 267 266 266 267 268 270 271 272 272 271 270 270 269 268 268 268 268 268 268 267 267 268 271 271 269 268 267 267 266 265 263 261 258 257 256 256 257
272 272 272 272 272 272 273 272 272 270 270 272 275 276 274 274 273 272 271 271 270 271 272 273 274 276 277 278 279 279 280 280 281 281 282 281 280 278 277 276 274 273 271 270 270 270 270 269 269 268 268 267 267 269 270 271 271 271 270 270 270 269 268 267 267 267 267 268 268 269 269 270 269 268 267 267 266 265 264 262 260 259 257 255 255 255
272 272 271 271 271 272 272 271 270 270 271 274 275 273 272 273 273 273 273 273 273 273 273 274 275 276 277 278 278 278 279 280 280 281 281 281 281 281 280 279 278 277 276 275 274 273 272 272 271 271 270 270 270 270 271 271 270 270 270 269 269 269 268 267 267 267 267 267 268 268 269 269 268 266 265 265 264 262 261 259 258 257 256 254 254 253
272 272 272 271 271 272 272 271 271 272 273 274 274 274 274 274 274 275 275 274 274 275 275 276 277 277 278 278 278 278 278 279 279 280 281 281 282 282 282 282 282 282 282 281 280 279 279 278 277 276 275 274 274 273 273 272 271 271 270 270 270 269 269 268 268 267 266 266 266 267 267 268 268 267 265 263 262 260 257 255 255 255 254 253 252 253
270 271 271 271 271 272 272 272 273 273 274 274 274 275 275 275 276 276 276 275 275 276 276 277 277 278 278 278 279 279 279 279 279 280 281 282 283 283 284 284 284 285 285 285 285 285 285 284 283 282 281 279 278 278 277 276 275 274 273 272 271 270 269 268 267 266 265 265 265 265 266 267 268 268 267 265 262 259 256 254 253 253 253 253 252 252
269 269 270 270 271 271 272 273 274 275 275 275 276 276 276 277 277 277 277 276 276 277 278 278 279 279 280 280 280 280 280 280 280 281 282 282 283 283 284 285 285 285 285 285 285 284 284 283 282 281 280 278 277 277 277 278 278 277 275 273 271 269 268 267 266 264 264 263 264 265 267 268 268 269 269 268 265 262 258 255 254 253 254 253 253 252
270 269 270 270 271 271 273 274 274 275 276 277 278 278 278 279 278 278 279 278 278 278 280 280 280 280 280 280 280 280 280 280 280 281 281 282 283 284 284 284 284 284 284 284 283 283 282 281 280 280 279 278 277 276 276 276 276 276 276 275 272 270 268 267 266 265 264 264 265 267 269 270 269 268 269 269 268 266 262 258 256 255 255 255 255 254
272 272 272 272 272 273 274 274 275 276 277 278 279 280 280 280 280 279 280 281 281 281 280 280 280 281 281 280 280 280 281 282 282 283 283 283 284 285 285 285 284 284 284 284 283 283 282 282 281 280 279 279 278 278 277 276 276 275 275 274 273 272 270 269 268 268 268 268 268 269 270 270 268 267 267 267 267 266 265 262 259 258 257 257 256 257
274 274 273 273 274 275 275 276 276 276 276 278 280 281 281 280 280 280 281 281 282 281 280 281 281 281 280 280 280 281 282 283 284 285 285 285 285 285 285 285 285 285 285 284 284 284 283 282 282 281 281 280 280 279 278 277 277 276 275 274 273 272 271 270 270 270 270 270 270 270 270 269 268 266 265 264 264 264 263 262 261 260 258 257 257 257
275 275 274 275 276 277 277 277 277 277 278 279 281 282 282 281 281 282 281 280 280 280 280 279 279 279 279 280 281 282 283 283 284 285 285 285 285 285 285 285 285 285 285 285 285 284 284 283 283 282 282 282 281 281 280 279 278 277 276 275 274 273 272 271 270 270 269 270 270 269 269 268 266 265 264 262 262 263 262 261 259 258 257 255 254 254
276 276 276 277 278 278 278 277 278 280 281 283 284 284 284 284 283 282 280 278 278 278 278 278 278 279 280 281 282 283 283 284 285 285 285 285 285 285 286 286 286 286 285 285 285 285 284 284 284 283 283 283 283 282 282 281 280 279 278 277 275 274 273 272 271 270 269 269 268 268 268 267 265 264 263 261 261 261 260 259 258 257 256 254 252 251
276 277 279 279 278 277 277 277 280 282 284 285 285 284 283 281 280 279 278 278 278 278 277 278 278 280 281 282 283 284 285 286 286 286 286 286 286 287 287 287 287 287 287 286 286 286 286 285 285 285 285 284 284 284 283 283 282 281 280 279 277 276 274 273 272 271 269 268 268 267 266 266 265 264 263 261 260 259 259 258 257 257 257 256 254 253
278 280 280 279 278 278 278 279 282 285 286 286 285 283 280 278 278 278 279 279 278 278 279 280 281 282 283 284 285 286 287 287 287 288 288 288 288 288 288 288 288 288 288 288 288 288 288 287 287 287 286 285 285 285 284 284 283 282 281 280 279 278 276 275 273 272 271 270 268 267 266 265 264 264 263 262 261 260 259 258 257 256 257 257 257 256
280 282 281 279 279 279 280 282 286 286 285 284 281 280 279 280 280 279 279 279 280 281 282 283 284 285 285 286 286 287 287 288 288 288 288 289 289 289 289 289 289 289 289 290 290 290 289 289 288 287 286 286 285 285 285 284 283 282 282 280 279 278 277 276 275 274 272 271 270 268 267 265 264 263 262 262 262 261 261 260 259 257 256 257 257 257
281 281 279 280 281 281 282 284 285 283 282 280 279 278 279 280 280 280 280 281 283 283 284 284 285 285 286 286 286 287 288 289 289 289 289 289 290 290 291 291 291 291 292 292 292 291 291 290 290 289 288 287 286 286 286 285 284 283 282 281 279 278 277 276 275 274 273 272 271 270 268 267 265 264 263 262 261 261 261 261 261 259 257 256 256 256
282 280 279 281 282 282 283 284 282 280 279 278 278 279 279 279 279 280 282 283 284 284 284 284 285 285 286 286 287 288 288 289 289 290 290 291 291 292 293 293 294 294 294 294 294 293 293 293 292 292 291 290 289 288 287 286 285 284 283 282 280 279 278 277 276 275 274 273 272 271 270 269 267 265 264 262 261 261 260 260 260 260 259 257 256 256
283 282 283 283 282 281 283 284 283 281 279 277 279 281 281 281 281 281 282 283 284 284 284 284 285 286 287 287 288 289 289 291 292 293 293 294 295 295 295 296 296 296 296 295 295 294 294 294 293 293 292 291 290 289 288 287 286 286 285 284 282 281 280 279 278 277 276 275 274 272 271 270 268 267 265 263 262 261 260 259 259 259 258 258 257 257
285 284 285 284 283 283 283 283 283 282 281 280 280 281 281 282 283 283 283 283 283 283 284 285 285 287 288 289 290 292 293 294 295 296 297 297 298 298 298 298 297 296 296 295 294 294 294 294 294 293 292 292 291 290 289 288 288 287 286 285 284 284 283 282 280 278 277 276 275 274 272 271 269 268 267 265 263 262 260 259 258 258 257 257 257 257
286 285 286 287 287 286 284 284 284 284 284 284 283 282 282 283 283 284 284 284 284 285 286 286 287 288 290 292 295 297 298 298 299 299 299 299 299 299 298 297 297 296 296 296 295 295 294 294 293 293 293 292 292 291 291 290 289 288 287 286 286 285 285 284 282 281 279 278 277 276 274 273 271 270 268 267 265 263 261 259 258 258 257 257 256 255
Height
5810 5806 5805 5810 5813 5810 5806 5803 5802 5802 5800 5798 5797 5796 5795 5794 5794 5799 5799 5797 5796 5790 5788 5792 5790 5788 5788 5789 5793 5795 5797 5799 5800 5797 5794 5794 5796 5796 5795 5794 5794 5792 5792 5791 5788 5785 5783 5782 5781 5780 5780 5780 5780 5780 5781 5781 5782 5783 5783 5785 5786 5786 5785 5785 5785 5785 5785 5785 5785 5784 5785 5785 5785 5785 5785 5786 5787 5787 5787 5787 5787 5787 5787 5786 5786 5785
5804 5799 5802 5807 5806 5802 5800 5799 5798 5797 5795 5794 5793 5791 5790 5789 5789 5792 5792 5791 5792 5785 5783 5785 5783 5782 5785 5785 5787 5788 5790 5794 5796 5793 5789 5790 5792 5792 5790 5789 5789 5787 5787 5785 5782 5781 5780 5779 5778 5777 5777 5777 5776 5776 5776 5777 5777 5777 5778 5780 5781 5781 5781 5781 5781 5781 5781 5781 5780 5780 5780 5780 5780 5780 5781 5782 5782 5782 5782 5782 5782 5782 5781 5781 5780 5779
5796 5794 5799 5801 5797 5795 5795 5794 5793 5791 5791 5790 5789 5786 5784 5785 5784 5783 5785 5786 5786 5781 5779 5780 5775 5775 5780 5781 5780 5782 5787 5790 5790 5788 5786 5786 5787 5788 5786 5784 5783 5783 5781 5778 5776 5776 5776 5774 5774 5773 5773 5773 5773 5772 5772 5772 5772 5773 5773 5774 5774 5775 5775 5776 5776 5776 5776 5776 5775 5775 5775 5775 5775 5775 5776 5776 5776 5777 5777 5777 5777 5776 5775 5774 5774 5774
5790 5790 5794 5794 5791 5791 5790 5788 5787 5786 5786 5785 5785 5782 5779 5781 5779 5776 5778 5779 5779 5777 5775 5774 5770 5768 5772 5774 5773 5777 5783 5786 5784 5783 5783 5782 5782 5782 5781 5780 5778 5777 5777 5774 5772 5772 5771 5769 5769 5769 5769 5769 5769 5768 5768 5767 5767 5768 5768 5768 5768 5769 5769 5770 5770 5770 5770 5770 5770 5770 5770 5770 5770 5770 5770 5770 5771 5772 5772 5771 5770 5769 5769 5768 5769 5769
5786 5787 5788 5788 5786 5785 5783 5782 5781 5780 5780 5780 5779 5777 5776 5777 5775 5772 5772 5771 5771 5772 5771 5769 5764 5761 5763 5766 5767 5771 5777 5780 5779 5778 5779 5780 5778 5776 5775 5774 5773 5773 5773 5771 5769 5768 5767 5766 5765 5765 5765 5765 5765 5764 5764 5763 5763 5763 5763 5763 5763 5763 5763 5764 5764 5764 5764 5765 5764 5764 5764 5764 5764 5764 5764 5765 5766 5766 5765 5764 5763 5763 5763 5763 5764 5763
5782 5782 5782 5782 5781 5779 5778 5777 5775 5774 5774 5774 5773 5772 5772 5771 5770 5768 5767 5765 5763 5765 5766 5766 5761 5755 5755 5758 5762 5766 5769 5772 5772 5771 5773 5775 5773 5772 5771 5768 5767 5768 5768 5767 5765 5764 5763 5762 5761 5760 5761 5761 5761 5760 5760 5759 5759 5758 5758 5758 5758 5758 5758 5758 5758 5758 5759 5759 5759 5758 5758 5758 5758 5758 5759 5759 5759 5758 5758 5758 5757 5757 5757 5758 5758 5758
5776 5777 5776 5776 5775 5773 5772 5772 5771 5769 5767 5766 5767 5768 5766 5765 5765 5764 5763 5761 5759 5758 5758 5759 5757 5752 5749 5753 5759 5761 5760 5762 5763 5761 5766 5771 5768 5767 5766 5763 5761 5761 5761 5760 5760 5760 5759 5759 5759 5758 5757 5757 5757 5756 5756 5755 5755 5754 5753 5753 5753 5753 5753 5752 5752 5752 5752 5753 5753 5752 5752 5752 5752 5753 5753 5752 5751 5751 5751 5751 5751 5752 5752 5752 5752 5752
5769 5769 5769 5768 5767 5766 5766 5767 5766 5762 5760 5760 5762 5761 5760 5759 5759 5759 5758 5756 5755 5754 5752 5752 5752 5750 5747 5747 5751 5754 5753 5754 5754 5751 5756 5763 5762 5761 5760 5759 5756 5754 5752 5751 5752 5755 5756 5756 5756 5755 5754 5754 5753 5752 5751 5751 5750 5750 5748 5748 5748 5747 5747 5747 5746 5746 5746 5746 5746 5746 5746 5746 5746 5746 5746 5745 5745 5745 5745 5745 5745 5746 5746 5746 5746 5746
5762 5761 5761 5760 5760 5760 5761 5761 5758 5755 5754 5756 5756 5755 5754 5753 5753 5752 5752 5750 5749 5749 5747 5746 5749 5749 5747 5745 5744 5744 5745 5747 5749 5749 5750 5752 5753 5754 5753 5752 5750 5747 5745 5743 5743 5745 5748 5750 5751 5751 5751 5750 5750 5749 5747 5746 5745 5744 5743 5742 5741 5741 5741 5741 5741 5740 5740 5740 5740 5740 5740 5740 5740 5740 5739 5738 5738 5738 5738 5738 5739 5739 5739 5740 5739 5739
5756 5755 5755 5754 5754 5755 5755 5753 5752 5751 5750 5750 5750 5749 5748 5747 5746 5746 5745 5745 5744 5744 5743 5743 5746 5746 5744 5744 5741 5738 5739 5739 5741 5744 5746 5746 5746 5745 5744 5742 5741 5741 5739 5738 5737 5736 5737 5740 5741 5744 5745 5746 5745 5744 5743 5742 5740 5738 5737 5736 5735 5734 5734 5734 5734 5734 5733 5733 5733 5733 5733 5734 5733 5732 5732 5732 5731 5731 5731 5732 5732 5732 5732 5732 5732 5733
5750 5749 5749 5749 5749 5749 5748 5747 5747 5746 5745 5745 5745 5744 5743 5741 5740 5739 5738 5739 5738 5738 5740 5741 5742 5743 5740 5737 5735 5735 5736 5736 5735 5736 5737 5740 5741 5738 5735 5732 5729 5731 5732 5731 5731 5731 5731 5731 5732 5733 5735 5737 5737 5736 5735 5735 5734 5732 5731 5730 5729 5728 5728 5727 5727 5726 5726 5725 5726 5725 5726 5726 5725 5725 5725 5725 5725 5725 5724 5724 5724 5724 5724 5724 5725 5725
5743 5743 5743 5744 5744 5744 5743 5742 5741 5740 5740 5740 5739 5738 5737 5735 5734 5732 5732 5733 5731 5733 5738 5737 5736 5738 5735 5732 5731 5731 5731 5732 5733 5732 5729 5731 5733 5732 5728 5723 5719 5719 5720 5722 5723 5724 5725 5725 5725 5725 5725 5725 5726 5726 5725 5725 5725 5725 5725 5724 5723 5723 5723 5722 5721 5720 5719 5719 5718 5718 5718 5718 5718 5718 5718 5718 5718 5718 5718 5717 5717 5716 5716 5717 5717 5717
5736 5737 5737 5737 5738 5738 5735 5734 5734 5733 5734 5733 5732 5731 5730 5728 5727 5725 5725 5726 5727 5730 5732 5730 5728 5728 5729 5731 5732 5731 5730 5729 5728 5727 5724 5723 5724 5724 5720 5716 5713 5710 5710 5712 5714 5716 5716 5716 5716 5716 5716 5715 5715 5715 5715 5715 5715 5716 5718 5718 5717 5717 5718 5717 5716 5715 5713 5712 5711 5710 5710 5710 5710 5710 5711 5711 5711 5711 5711 5710 5709 5709 5709 5708 5708 5709
5729 5731 5732 5731 5732 5732 5729 5728 5727 5726 5726 5725 5725 5724 5722 5722 5720 5717 5719 5720 5721 5724 5723 5722 5721 5720 5725 5729 5730 5730 5730 5728 5724 5721 5719 5717 5715 5713 5710 5706 5704 5703 5703 5704 5705 5706 5706 5707 5706 5706 5706 5706 5705 5705 5706 5707 5707 5708 5709 5710 5710 5710 5711 5711 5711 5710 5708 5707 5705 5704 5703 5702 5702 5702 5702 5702 5702 5702 5702 5702 5702 5702 5701 5701 5701 5700
5721 5723 5727 5725 5724 5726 5724 5722 5721 5719 5719 5718 5719 5717 5715 5717 5714 5711 5713 5713 5713 5714 5713 5714 5713 5714 5721 5726 5726 5726 5726 5724 5720 5716 5713 5710 5707 5703 5698 5695 5694 5694 5695 5696 5697 5696 5696 5696 5696 5696 5696 5696 5696 5696 5698 5698 5698 5699 5700 5701 5702 5702 5703 5703 5703 5703 5702 5700 5700 5699 5697 5696 5695 5694 5693 5693 5692 5693 5693 5693 5694 5694 5693 5693 5693 5693
5711 5715 5722 5718 5715 5719 5718 5716 5715 5712 5711 5711 5712 5709 5708 5711 5709 5705 5704 5704 5705 5702 5701 5705 5704 5707 5716 5720 5722 5722 5720 5718 5712 5709 5708 5703 5698 5694 5688 5687 5687 5687 5687 5687 5688 5688 5688 5688 5688 5687 5687 5688 5688 5688 5689 5690 5690 5690 5689 5690 5691 5692 5694 5694 5694 5694 5694 5693 5692 5691 5691 5690 5689 5687 5686 5685 5684 5684 5684 5684 5685 5685 5685 5685 5685 5685
5703 5707 5716 5712 5707 5710 5710 5708 5707 5705 5704 5704 5703 5703 5704 5703 5701 5698 5693 5694 5695 5689 5690 5696 5695 5699 5705 5708 5715 5719 5716 5711 5704 5702 5700 5692 5688 5686 5682 5681 5680 5679 5678 5678 5679 5679 5680 5680 5681 5681 5681 5681 5681 5680 5681 5682 5682 5681 5679 5679 5680 5681 5682 5683 5684 5684 5684 5685 5684 5683 5683 5682 5681 5680 5679 5679 5678 5678 5678 5678 5677 5676 5676 5676 5677 5677
5694 5696 5706 5707 5700 5700 5702 5700 5698 5697 5696 5694 5694 5697 5697 5693 5691 5690 5685 5684 5684 5677 5678 5686 5688 5692 5694 5696 5705 5711 5710 5706 5697 5693 5689 5681 5679 5678 5675 5675 5674 5672 5670 5669 5669 5670 5670 5671 5672 5674 5674 5674 5674 5674 5674 5674 5674 5673 5671 5669 5669 5670 5672 5672 5673 5674 5674 5675 5675 5674 5674 5673 5673 5673 5672 5672 5672 5672 5672 5672 5670 5669 5669 5669 5668 5668
5686 5683 5691 5700 5696 5691 5692 5693 5691 5690 5688 5686 5686 5687 5687 5683 5681 5681 5676 5673 5673 5668 5667 5672 5675 5680 5683 5687 5695 5698 5700 5697 5686 5680 5677 5673 5673 5671 5668 5667 5666 5665 5663 5662 5661 5661 5662 5662 5662 5663 5664 5664 5665 5664 5665 5664 5664 5664 5663 5661 5660 5660 5661 5662 5663 5663 5663 5665 5665 5665 5665 5664 5664 5664 5664 5664 5663 5664 5664 5664 5663 5662 5662 5661 5660 5660
5679 5672 5674 5687 5690 5683 5681 5685 5685 5684 5682 5678 5676 5675 5675 5674 5671 5670 5667 5665 5665 5660 5657 5659 5659 5663 5672 5680 5684 5686 5686 5679 5671 5670 5670 5667 5665 5662 5659 5658 5656 5656 5656 5655 5654 5653 5653 5654 5654 5654 5654 5654 5654 5653 5653 5653 5653 5654 5654 5654 5652 5651 5651 5652 5653 5653 5653 5654 5655 5655 5655 5655 5655 5655 5655 5655 5654 5655 5655 5655 5655 5654 5654 5653 5652 5652
5671 5665 5662 5671 5678 5675 5674 5676 5677 5676 5673 5669 5667 5666 5665 5665 5663 5659 5657 5657 5658 5652 5649 5648 5644 5648 5661 5669 5672 5673 5667 5660 5661 5663 5662 5659 5656 5652 5650 5649 5648 5648 5647 5646 5646 5645 5646 5646 5646 5646 5645 5645 5645 5644 5643 5643 5643 5644 5644 5644 5644 5643 5643 5643 5643 5644 5644 5645 5645 5646 5646 5645 5645 5645 5645 5645 5645 5645 5645 5644 5645 5645 5645 5645 5646 5645
5662 5658 5654 5656 5661 5665 5668 5669 5666 5664 5663 5660 5658 5658 5658 5658 5656 5651 5646 5648 5650 5644 5641 5640 5632 5635 5649 5659 5663 5659 5649 5648 5654 5655 5653 5651 5649 5646 5643 5640 5639 5639 5638 5637 5637 5637 5637 5636 5636 5637 5636 5636 5636 5636 5635 5635 5635 5635 5635 5635 5635 5635 5635 5635 5634 5635 5635 5636 5636 5637 5637 5636 5636 5635 5635 5636 5636 5635 5635 5634 5634 5634 5635 5636 5637 5637
5654 5650 5646 5645 5649 5653 5657 5660 5657 5653 5654 5652 5649 5650 5651 5650 5649 5644 5637 5639 5641 5635 5635 5635 5624 5624 5637 5649 5652 5644 5636 5639 5643 5643 5642 5642 5641 5639 5637 5634 5631 5629 5628 5628 5627 5627 5627 5627 5627 5626 5626 5626 5626 5626 5625 5625 5625 5625 5625 5625 5626 5626 5626 5626 5626 5626 5626 5627 5627 5627 5627 5627 5627 5626 5626 5626 5626 5626 5626 5625 5625 5624 5624 5625 5626 5627
5647 5643 5639 5637 5638 5640 5644 5648 5648 5644 5645 5643 5640 5644 5644 5641 5641 5637 5632 5633 5630 5626 5629 5626 5616 5617 5628 5635 5636 5631 5628 5631 5631 5630 5632 5631 5631 5631 5629 5627 5624 5621 5619 5617 5616 5616 5615 5616 5617 5616 5616 5617 5616 5616 5616 5615 5615 5615 5615 5615 5615 5616 5616 5615 5616 5617 5617 5617 5617 5617 5617 5616 5616 5616 5616 5616 5617 5617 5617 5616 5616 5615 5615 5615 5615 5616
5639 5636 5633 5630 5628 5628 5632 5637 5638 5637 5636 5631 5630 5633 5633 5632 5631 5627 5626 5626 5618 5615 5621 5615 5606 5611 5619 5621 5622 5621 5619 5619 5619 5619 5620 5619 5619 5618 5617 5616 5615 5613 5611 5608 5605 5604 5603 5603 5604 5604 5604 5605 5605 5606 5606 5606 5606 5605 5605 5604 5604 5604 5604 5604 5604 5605 5606 5606 5607 5607 5606 5606 5605 5605 5605 5605 5606 5607 5607 5607 5607 5606 5606 5606 5606 5606
5631 5628 5628 5625 5620 5618 5621 5626 5629 5628 5625 5621 5620 5622 5622 5622 5621 5618 5618 5615 5607 5607 5611 5604 5598 5603 5609 5610 5610 5610 5609 5609 5609 5608 5607 5606 5605 5604 5604 5603 5603 5602 5601 5600 5597 5595 5593 5592 5592 5592 5592 5592 5592 5593 5594 5594 5595 5594 5594 5594 5594 5593 5593 5592 5592 5592 5593 5593 5594 5594 5595 5594 5594 5594 5594 5594 5595 5596 5596 5596 5596 5597 5597 5596 5596 5596
5621 5618 5620 5618 5613 5612 5613 5615 5619 5618 5613 5611 5611 5613 5614 5613 5613 5611 5607 5601 5600 5599 5596 5595 5595 5594 5596 5600 5600 5598 5599 5599 5598 5597 5595 5594 5593 5593 5593 5592 5591 5591 5589 5589 5588 5586 5584 5583 5581 5581 5581 5580 5579 5579 5580 5581 5582 5582 5582 5582 5582 5582 5582 5582 5581 5581 5581 5581 5581 5581 5581 5581 5581 5581 5581 5582 5583 5584 5585 5585 5585 5586 5586 5586 5586 5586
5611 5606 5610 5611 5605 5605 5606 5605 5608 5607 5603 5601 5601 5601 5603 5603 5602 5601 5595 5592 5595 5588 5579 5586 5591 5582 5582 5589 5587 5584 5586 5586 5586 5586 5585 5584 5584 5582 5582 5581 5580 5579 5578 5577 5576 5575 5574 5572 5571 5570 5569 5568 5568 5567 5566 5566 5567 5568 5569 5569 5569 5569 5569 5569 5569 5569 5570 5569 5569 5569 5569 5569 5569 5569 5568 5569 5570 5572 5573 5574 5574 5574 5574 5574 5575 5575
5601 5596 5601 5601 5594 5595 5598 5597 5597 5596 5593 5592 5590 5588 5590 5592 5592 5590 5585 5585 5586 5575 5568 5577 5580 5573 5573 5576 5572 5571 5573 5573 5573 5574 5573 5573 5573 5572 5571 5570 5569 5568 5567 5566 5565 5563 5562 5561 5560 5559 5557 5556 5556 5555 5555 5554 5552 5552 5553 5554 5554 5554 5555 5556 5556 5556 5556 5556 5556 5556 5556 5556 5556 5556 5556 5556 5557 5558 5559 5561 5562 5562 5562 5562 5563 5564
5590 5587 5591 5589 5583 5585 5589 5588 5588 5586 5582 5581 5579 5577 5578 5581 5582 5581 5578 5578 5576 5567 5564 5567 5564 5562 5564 5563 5560 5560 5561 5561 5561 5561 5561 5560 5560 5560 5559 5558 5557 5556 5555 5555 5554 5552 5551 5549 5548 5547 5545 5544 5542 5542 5542 5542 5541 5540 5538 5538 5538 5538 5538 5539 5541 5541 5542 5542 5542 5542 5543 5543 5543 5542 5542 5542 5543 5544 5545 5547 5548 5549 5550 5550 5551 5551
5582 5579 5579 5578 5573 5572 5578 5580 5576 5574 5571 5567 5566 5569 5572 5572 5571 5570 5569 5568 5566 5559 5557 5556 5552 5551 5552 5550 5550 5550 5549 5549 5548 5547 5548 5548 5547 5547 5547 5546 5546 5544 5543 5542 5541 5540 5539 5538 5537 5535 5534 5532 5530 5529 5528 5528 5528 5528 5527 5525 5523 5522 5522 5522 5523 5525 5526 5527 5527 5527 5528 5529 5530 5529 5528 5528 5529 5530 5532 5533 5534 5535 5537 5538 5538 5539
5576 5570 5569 5569 5560 5558 5568 5569 5562 5562 5559 5552 5554 5562 5566 5565 5562 5559 5558 5558 5555 5550 5548 5546 5543 5542 5542 5539 5538 5537 5535 5535 5535 5534 5535 5536 5535 5535 5534 5534 5534 5532 5531 5529 5528 5527 5526 5525 5525 5523 5522 5520 5519 5517 5515 5514 5514 5514 5513 5513 5511 5509 5509 5508 5507 5508 5509 5510 5512 5512 5513 5513 5514 5515 5515 5515 5515 5516 5518 5519 5521 5522 5523 5524 5525 5526
5569 5562 5560 5560 5548 5546 5558 5557 5549 5549 5543 5538 5550 5558 5556 5554 5552 5549 5548 5549 5546 5542 5538 5536 5534 5533 5532 5529 5527 5525 5522 5520 5520 5519 5520 5521 5522 5522 5521 5521 5521 5520 5519 5517 5515 5515 5513 5512 5512 5511 5510 5509 5507 5505 5503 5501 5501 5500 5498 5498 5497 5497 5496 5495 5495 5494 5494 5494 5494 5496 5498 5499 5499 5500 5500 5501 5501 5502 5503 5504 5505 5507 5508 5510 5511 5512
5560 5555 5552 5550 5539 5535 5546 5546 5538 5532 5526 5531 5549 5553 5544 5542 5542 5539 5538 5539 5538 5533 5528 5525 5524 5522 5521 5519 5517 5514 5511 5508 5507 5507 5506 5505 5506 5506 5505 5506 5506 5505 5505 5504 5502 5501 5499 5498 5498 5497 5496 5495 5493 5492 5490 5488 5487 5486 5484 5483 5482 5481 5481 5481 5482 5481 5481 5481 5479 5478 5480 5482 5485 5485 5485 5486 5487 5487 5488 5488 5489 5491 5492 5494 5496 5497
5547 5546 5542 5539 5531 5526 5533 5534 5523 5516 5518 5527 5538 5538 5534 5532 5531 5528 5528 5528 5527 5524 5518 5515 5513 5511 5510 5509 5506 5503 5500 5498 5497 5496 5494 5491 5490 5490 5490 5490 5489 5489 5489 5488 5487 5486 5484 5483 5483 5481 5480 5479 5477 5476 5474 5473 5472 5471 5470 5468 5466 5465 5465 5465 5466 5466 5466 5467 5466 5464 5463 5463 5466 5469 5470 5471 5472 5473 5474 5473 5474 5475 5476 5478 5481 5482
5535 5534 5530 5527 5523 5517 5519 5519 5510 5506 5512 5519 5521 5523 5524 5522 5519 5518 5516 5516 5515 5512 5508 5504 5501 5499 5499 5497 5493 5490 5488 5486 5487 5487 5483 5478 5477 5477 5476 5476 5474 5473 5472 5471 5470 5469 5468 5466 5466 5465 5464 5463 5461 5459 5458 5457 5456 5456 5455 5453 5451 5450 5449 5448 5449 5449 5450 5451 5450 5450 5448 5447 5447 5449 5452 5455 5458 5459 5459 5459 5459 5460 5460 5463 5466 5468
5525 5523 5519 5516 5513 5509 5506 5504 5501 5498 5501 5507 5511 5512 5511 5510 5509 5506 5503 5502 5503 5500 5497 5493 5490 5488 5486 5483 5480 5478 5475 5474 5476 5478 5473 5467 5466 5466 5465 5464 5463 5460 5459 5458 5456 5455 5453 5451 5450 5450 5449 5448 5447 5444 5441 5440 5440 5440 5440 5439 5436 5435 5434 5433 5432 5432 5433 5434 5434 5434 5434 5433 5431 5431 5433 5436 5440 5443 5445 5445 5445 5445 5445 5447 5450 5453
5515 5512 5510 5505 5502 5502 5498 5493 5492 5490 5489 5495 5500 5501 5499 5500 5500 5494 5488 5488 5492 5490 5485 5481 5479 5476 5472 5470 5468 5465 5462 5461 5465 5469 5465 5457 5456 5456 5455 5454 5453 5450 5449 5448 5445 5444 5442 5440 5439 5437 5437 5436 5435 5432 5428 5426 5425 5424 5425 5425 5423 5421 5421 5419 5418 5418 5418 5418 5418 5419 5419 5418 5418 5418 5417 5418 5421 5424 5429 5431 5431 5431 5431 5432 5435 5439
5504 5501 5500 5495 5491 5493 5491 5485 5483 5481 5480 5483 5487 5489 5489 5488 5487 5482 5475 5474 5481 5482 5474 5467 5467 5464 5460 5457 5455 5452 5450 5449 5453 5459 5456 5448 5446 5447 5445 5444 5443 5440 5439 5437 5434 5431 5430 5428 5426 5425 5424 5423 5421 5419 5416 5413 5411 5410 5409 5410 5408 5408 5407 5405 5404 5404 5404 5404 5404 5404 5404 5403 5403 5404 5404 5404 5404 5406 5410 5414 5416 5417 5417 5418 5420 5423
5494 5491 5489 5485 5482 5484 5481 5476 5474 5473 5473 5475 5477 5478 5480 5477 5474 5471 5467 5465 5468 5468 5462 5456 5454 5452 5449 5445 5442 5441 5440 5439 5440 5446 5446 5441 5437 5435 5434 5433 5431 5429 5427 5425 5422 5419 5416 5414 5413 5411 5411 5409 5406 5404 5401 5398 5397 5396 5395 5394 5393 5393 5392 5390 5389 5389 5389 5389 5389 5388 5388 5388 5388 5388 5389 5390 5391 5391 5393 5396 5399 5401 5403 5403 5405 5408
5483 5481 5478 5475 5475 5475 5472 5468 5464 5463 5467 5469 5468 5469 5470 5467 5463 5461 5461 5459 5456 5453 5450 5446 5443 5441 5438 5434 5431 5431 5432 5431 5431 5433 5434 5432 5428 5425 5423 5421 5419 5417 5415 5412 5410 5406 5402 5400 5399 5397 5397 5395 5392 5389 5386 5383 5382 5381 5380 5378 5378 5378 5376 5374 5374 5374 5373 5373 5373 5372 5372 5372 5372 5372 5374 5375 5376 5377 5379 5381 5382 5384 5387 5388 5390 5393
5473 5471 5468 5468 5467 5466 5463 5459 5454 5453 5459 5463 5462 5460 5459 5456 5454 5453 5451 5448 5445 5443 5441 5437 5433 5430 5427 5424 5424 5423 5423 5423 5423 5422 5422 5420 5417 5414 5412 5410 5407 5406 5403 5400 5397 5393 5388 5386 5385 5384 5383 5381 5377 5374 5371 5367 5366 5366 5364 5363 5362 5360 5358 5358 5358 5357 5357 5357 5357 5356 5356 5356 5356 5356 5357 5359 5359 5360 5364 5367 5368 5369 5371 5373 5376 5378
5464 5461 5461 5462 5461 5456 5453 5450 5446 5446 5451 5455 5454 5452 5450 5446 5444 5443 5439 5436 5435 5434 5431 5427 5424 5422 5418 5416 5416 5415 5414 5414 5414 5412 5410 5408 5406 5403 5401 5398 5395 5393 5391 5388 5386 5381 5374 5371 5371 5370 5370 5368 5364 5360 5355 5351 5349 5349 5348 5347 5346 5342 5340 5341 5341 5340 5340 5341 5340 5340 5340 5339 5339 5340 5340 5342 5342 5342 5346 5352 5353 5354 5356 5358 5360 5363
5455 5454 5454 5455 5453 5447 5443 5442 5441 5441 5444 5446 5445 5444 5441 5437 5434 5431 5427 5425 5426 5425 5421 5418 5416 5415 5412 5409 5407 5405 5405 5404 5403 5401 5399 5397 5395 5392 5389 5386 5383 5380 5378 5375 5372 5368 5362 5357 5357 5357 5356 5355 5352 5346 5341 5336 5333 5332 5331 5330 5327 5323 5322 5323 5322 5321 5323 5324 5324 5324 5324 5322 5322 5323 5323 5324 5325 5325 5329 5334 5336 5337 5341 5344 5345 5347
5448 5449 5447 5445 5443 5439 5435 5437 5439 5436 5437 5438 5436 5432 5430 5427 5425 5422 5417 5415 5416 5415 5413 5410 5408 5408 5406 5401 5398 5396 5395 5394 5392 5390 5388 5385 5383 5381 5378 5374 5371 5368 5364 5361 5358 5354 5349 5345 5343 5342 5341 5341 5339 5333 5327 5322 5317 5315 5315 5312 5308 5304 5304 5304 5304 5304 5305 5305 5306 5306 5306 5305 5306 5307 5307 5308 5308 5309 5312 5316 5318 5320 5324 5328 5330 5333
5443 5443 5437 5434 5434 5431 5428 5434 5435 5430 5429 5429 5426 5422 5419 5417 5416 5414 5409 5407 5408 5407 5405 5402 5400 5399 5397 5393 5389 5387 5385 5384 5382 5379 5377 5374 5371 5370 5366 5362 5359 5355 5352 5349 5345 5341 5336 5333 5331 5329 5326 5326 5326 5321 5314 5309 5305 5301 5299 5296 5291 5287 5285 5285 5285 5286 5286 5287 5287 5287 5287 5287 5289 5291 5291 5292 5292 5293 5295 5299 5301 5302 5306 5310 5313 5317
5439 5436 5428 5425 5426 5422 5422 5429 5430 5422 5419 5420 5416 5414 5413 5410 5407 5405 5402 5401 5401 5399 5398 5395 5392 5389 5387 5384 5381 5378 5376 5375 5371 5368 5367 5364 5361 5359 5355 5350 5347 5344 5341 5338 5333 5328 5323 5320 5318 5315 5312 5311 5312 5307 5300 5296 5293 5288 5283 5279 5275 5272 5269 5268 5268 5267 5268 5269 5269 5269 5269 5269 5270 5273 5275 5276 5277 5277 5279 5282 5283 5284 5288 5292 5296 5300
5431 5427 5422 5420 5419 5414 5414 5422 5422 5414 5410 5410 5407 5406 5406 5403 5401 5399 5396 5394 5393 5391 5389 5387 5383 5381 5378 5375 5372 5369 5367 5365 5361 5357 5356 5354 5352 5349 5344 5339 5336 5333 5330 5327 5322 5316 5312 5307 5304 5301 5298 5296 5296 5293 5286 5282 5279 5275 5268 5263 5258 5254 5253 5253 5252 5250 5250 5251 5251 5251 5251 5251 5252 5254 5256 5258 5260 5261 5263 5266 5266 5266 5270 5275 5279 5282
5423 5419 5416 5413 5411 5409 5410 5413 5410 5403 5401 5403 5402 5400 5397 5394 5393 5393 5391 5388 5385 5383 5381 5379 5376 5373 5370 5367 5364 5361 5358 5357 5353 5348 5345 5344 5343 5339 5334 5329 5325 5322 5318 5315 5310 5305 5301 5296 5291 5287 5283 5282 5280 5276 5272 5268 5266 5261 5254 5248 5243 5238 5236 5237 5236 5234 5234 5234 5234 5234 5234 5233 5233 5234 5236 5238 5240 5242 5245 5248 5249 5249 5253 5259 5263 5264
5414 5411 5408 5403 5400 5403 5404 5403 5399 5392 5391 5396 5397 5393 5388 5385 5384 5384 5383 5380 5377 5374 5372 5371 5369 5366 5362 5358 5355 5352 5350 5348 5345 5339 5336 5335 5333 5328 5323 5319 5315 5311 5308 5303 5298 5294 5290 5285 5279 5274 5270 5268 5265 5261 5258 5255 5252 5247 5241 5233 5228 5224 5221 5220 5219 5219 5219 5219 5217 5217 5216 5215 5216 5217 5217 5218 5221 5223 5226 5230 5232 5232 5236 5242 5247 5247
5406 5403 5400 5395 5392 5393 5395 5395 5391 5384 5382 5386 5388 5384 5380 5379 5377 5375 5373 5371 5368 5366 5364 5362 5360 5358 5355 5352 5348 5344 5342 5339 5336 5331 5329 5327 5323 5319 5314 5309 5304 5300 5297 5292 5287 5283 5278 5274 5269 5263 5258 5255 5252 5247 5243 5240 5236 5232 5226 5220 5215 5211 5208 5205 5203 5203 5205 5205 5203 5201 5200 5199 5200 5201 5201 5201 5203 5204 5206 5211 5216 5217 5220 5224 5228 5230